Weather History for Limon, CO

Change the Weather History Date:

Monday, April 28, 2014

  Actual Average Record
Temperature  
Mean Temperature 42 °F -  
Max Temperature 52 °F - 78 °F (2001)
Min Temperature 31 °F - 19 °F (2002)
Degree Days  
Heating Degree Days 23    
Month to date heating degree days 540  
Cooling Degree Days 0    
Month to date cooling degree days 0  
Moisture  
Dew Point 27 °F    
Average Humidity 62    
Maximum Humidity 96    
Minimum Humidity 27    
Precipitation  
Precipitation 0.00 in - 1.42 in (1999)
Month to date precipitation 1.19  
Year to date precipitation 2.63  
Sea Level Pressure  
Sea Level Pressure 29.69 in    
Wind  
Wind Speed 20 mph (NW)    
Max Wind Speed 41 mph    
Max Gust Speed 50 mph    
Visibility 10 miles    
Events      
T = Trace of Precipitation, MM = Missing Value Source: NWS Daily Summary

Daily Weather History Graph

Daily Weather History Graph

Search for Another Location

Airport:

Trip Planner

Search our weather history database for the weather conditions in past years. The results will help you decide how hot, cold, wet, or windy it might be!

Date:

Astronomy

Apr. 28, 2014 Rise Set
Actual Time 5:59 AM MDT 7:45 PM MDT
Civil Twilight 5:31 AM MDT 8:13 PM MDT
Nautical Twilight 4:56 AM MDT 8:48 PM MDT
Astronomical Twilight 4:19 AM MDT 9:26 PM MDT
Moon 5:39 AM MDT (4/28) 7:25 PM MDT (4/28)
Length of Visible Light 14h 42m
Length of Day
13h 45m
Waning Crescent, 0% of the Moon is Illuminated
Apr 28
Waning Crescent
Apr 29
New
May 6
First Quarter
May 14
Full
May 21
Last Quarter

Hourly Weather History & Observations

Time (MDT) Temp. Windchill Dew Point Humidity Pressure Visibility Wind Dir Wind Speed Gust Speed Precip Events Conditions
12:55 AM 35.1 °F 27.4 °F 33.1 °F 92% 29.61 in 10.0 mi NNW 10.4 mph - N/A   Clear
2:55 AM 35.1 °F 26.4 °F 32.0 °F 89% 29.58 in 10.0 mi West 12.7 mph - N/A   Scattered Clouds
3:55 AM 34.0 °F 26.0 °F 30.9 °F 89% 29.60 in 10.0 mi WNW 10.4 mph - N/A   Clear
4:55 AM 33.1 °F 23.0 °F 28.9 °F 85% 29.60 in 10.0 mi WNW 15.0 mph - N/A   Clear
5:55 AM 32.0 °F 24.2 °F 28.0 °F 85% 29.62 in 10.0 mi West 9.2 mph - N/A   Clear
6:55 AM 30.9 °F 22.8 °F 28.0 °F 89% 29.64 in 10.0 mi WNW 9.2 mph - N/A   Clear
7:55 AM 37.9 °F 28.2 °F 26.1 °F 62% 29.62 in 10.0 mi NW 18.4 mph - N/A   Clear
8:55 AM 42.1 °F 31.7 °F 28.0 °F 58% 29.62 in 10.0 mi NW 27.6 mph 33.4 mph N/A   Clear
9:55 AM 46.0 °F 36.4 °F 25.0 °F 44% 29.62 in 10.0 mi NW 32.2 mph 46.0 mph N/A   Clear
10:55 AM 46.9 °F - 26.1 °F 44% 29.63 in 10.0 mi NNW 31.1 mph 36.8 mph N/A   Clear
11:55 AM 48.9 °F - 24.1 °F 38% 29.64 in 10.0 mi NNW 34.5 mph 44.9 mph N/A   Clear
12:55 PM 50.0 °F - 24.1 °F 36% 29.63 in 10.0 mi NNW 31.1 mph 43.7 mph N/A   Partly Cloudy
1:55 PM 51.1 °F - 24.1 °F 35% 29.64 in 10.0 mi NNW 29.9 mph 49.5 mph N/A   Partly Cloudy
3:55 PM 52.0 °F - 19.9 °F 28% 29.66 in 10.0 mi NW 34.5 mph 44.9 mph N/A   Scattered Clouds
4:55 PM 46.9 °F - 25.0 °F 42% 29.71 in 10.0 mi NNW 29.9 mph 42.6 mph N/A   Scattered Clouds
5:55 PM 46.0 °F 36.9 °F 26.1 °F 46% 29.75 in 10.0 mi North 28.8 mph 38.0 mph N/A   Scattered Clouds
6:55 PM 43.0 °F 32.4 °F 27.0 °F 53% 29.79 in 10.0 mi North 31.1 mph - N/A   Partly Cloudy
7:55 PM 39.9 °F 29.0 °F 27.0 °F 60% 29.81 in 10.0 mi North 26.5 mph 36.8 mph N/A   Clear
8:55 PM 37.9 °F 27.3 °F 27.0 °F 65% 29.84 in 10.0 mi North 21.9 mph 33.4 mph N/A   Clear
9:55 PM 37.9 °F 25.7 °F 25.0 °F 60% 29.87 in 10.0 mi NNW 29.9 mph 35.7 mph N/A   Scattered Clouds
10:55 PM 37.0 °F 24.7 °F 26.1 °F 65% 29.88 in 10.0 mi NW 28.8 mph 36.8 mph N/A   Mostly Cloudy
11:55 PM 37.0 °F 24.5 °F 25.0 °F 62% 29.87 in 10.0 mi NW 29.9 mph 39.1 mph N/A   Mostly Cloudy